When you browse on this site, cookies collect data to enhance your experience and personalize the content and advertising you see.
Visit our Privacy Policy to learn more. By continuing to use the site, you agree to this use of cookies and data.
  • In Slovakia
  • List of Countries
  • For 7 days
  • Water Temperature
  • Weather Map
  • Weather Widgets
  • user-avatar
    Login

    Hourly Weather Lubango

    Today, 19 January, Sunday

    Time Temperature Precipitation Wind Pressure Humidity
    00:00 +15°C° 0 mm 2 mps 608 mmHg 96%
    01:00 +15°C° 0 mm 1 mps 608 mmHg 96%
    02:00 +15°C° 0 mm 1 mps 608 mmHg 96%
    03:00 +15°C° 0 mm 1 mps 607 mmHg 95%
    04:00 +15°C° 0 mm 1 mps 607 mmHg 94%
    05:00 +15°C° 0 mm 1 mps 607 mmHg 92%
    06:00 +15°C° 0 mm 1 mps 608 mmHg 90%
    07:00 +16°C° 0 mm 1 mps 608 mmHg 87%
    08:00 +18°C° 0 mm 1 mps 609 mmHg 79%
    09:00 +20°C° 0 mm 1 mps 610 mmHg 71%
    10:00 +21°C° 0 mm 2 mps 611 mmHg 63%
    11:00 +23°C° 0 mm 2 mps 610 mmHg 61%
    12:00 +23°C° 0 mm 2 mps 610 mmHg 59%
    13:00 +24°C° 0 mm 2 mps 610 mmHg 58%
    14:00 +24°C° 0.3 mm 3 mps 609 mmHg 60%
    15:00 +22°C° 0.3 mm 3 mps 609 mmHg 62%
    16:00 +22°C° 0.3 mm 3 mps 608 mmHg 64%
    17:00 +20°C° 0.1 mm 3 mps 608 mmHg 71%
    18:00 +19°C° 0.1 mm 2 mps 608 mmHg 78%
    19:00 +18°C° 0.1 mm 1 mps 607 mmHg 85%
    20:00 +18°C° 0 mm 1 mps 608 mmHg 88%
    21:00 +16°C° 0 mm 1 mps 608 mmHg 91%
    22:00 +16°C° 0 mm 1 mps 608 mmHg 94%
    23:00 +16°C° 0 mm 1 mps 608 mmHg 95%

    Tomorrow, 20 January, Monday

    Time Temperature Precipitation Wind Pressure Humidity
    00:00 +15°C° 0 mm 1 mps 608 mmHg 95%
    01:00 +15°C° 0 mm 1 mps 608 mmHg 95%
    02:00 +15°C° 0 mm 1 mps 607 mmHg 94%
    03:00 +15°C° 0 mm 1 mps 607 mmHg 93%
    04:00 +15°C° 0 mm 1 mps 607 mmHg 91%
    05:00 +15°C° 0 mm 1 mps 607 mmHg 90%
    06:00 +15°C° 0 mm 1 mps 608 mmHg 88%
    07:00 +15°C° 0 mm 0 mps 608 mmHg 86%
    08:00 +19°C° 0 mm 1 mps 609 mmHg 79%
    09:00 +21°C° 0 mm 1 mps 610 mmHg 71%
    10:00 +23°C° 0 mm 1 mps 611 mmHg 63%
    11:00 +23°C° 0.1 mm 2 mps 610 mmHg 62%
    12:00 +24°C° 0.1 mm 2 mps 610 mmHg 61%
    13:00 +25°C° 0.1 mm 2 mps 610 mmHg 60%
    14:00 +24°C° 0.6 mm 2 mps 609 mmHg 64%
    15:00 +23°C° 0.6 mm 2 mps 608 mmHg 68%
    16:00 +23°C° 0.6 mm 2 mps 607 mmHg 72%
    17:00 +21°C° 0.5 mm 1 mps 607 mmHg 78%
    18:00 +20°C° 0.5 mm 1 mps 607 mmHg 83%
    19:00 +19°C° 0.5 mm 1 mps 607 mmHg 89%
    20:00 +17°C° 0.2 mm 0 mps 608 mmHg 89%
    21:00 +16°C° 0.2 mm 0 mps 608 mmHg 90%
    22:00 +16°C° 0.2 mm 0 mps 608 mmHg 91%
    23:00 +15°C° 0 mm 0 mps 608 mmHg 92%

    Day after tomorrow, 21 January, Tuesday

    Time Temperature Precipitation Wind Pressure Humidity
    00:00 +15°C° 0 mm 0 mps 608 mmHg 93%
    01:00 +15°C° 0 mm 0 mps 608 mmHg 94%
    02:00 +15°C° 0.1 mm 0 mps 607 mmHg 93%
    03:00 +15°C° 0.1 mm 0 mps 607 mmHg 93%
    04:00 +15°C° 0.1 mm 0 mps 607 mmHg 92%
    05:00 +15°C° 0.1 mm 0 mps 608 mmHg 89%
    06:00 +16°C° 0.1 mm 0 mps 608 mmHg 86%
    07:00 +17°C° 0.1 mm 0 mps 609 mmHg 83%
    08:00 +18°C° 0.5 mm 0 mps 610 mmHg 78%
    09:00 +22°C° 0.5 mm 1 mps 610 mmHg 73%
    10:00 +23°C° 0.5 mm 1 mps 611 mmHg 68%
    11:00 +24°C° 1.4 mm 1 mps 610 mmHg 67%
    12:00 +24°C° 1.4 mm 1 mps 610 mmHg 67%
    13:00 +25°C° 1.4 mm 1 mps 610 mmHg 66%
    14:00 +24°C° 1.9 mm 1 mps 609 mmHg 69%
    15:00 +23°C° 1.9 mm 1 mps 608 mmHg 72%
    16:00 +23°C° 1.9 mm 1 mps 608 mmHg 75%
    17:00 +22°C° 1.1 mm 1 mps 608 mmHg 78%
    18:00 +21°C° 1.1 mm 1 mps 608 mmHg 81%
    19:00 +20°C° 1.1 mm 1 mps 608 mmHg 85%
    20:00 +19°C° 0.4 mm 1 mps 608 mmHg 85%
    21:00 +17°C° 0.4 mm 0 mps 608 mmHg 86%
    22:00 +17°C° 0.4 mm 0 mps 609 mmHg 87%
    23:00 +17°C° 0 mm 0 mps 609 mmHg 87%

    22 January, Wednesday

    Time Temperature Precipitation Wind Pressure Humidity
    00:00 +18°C° 0 mm 1 mps 608 mmHg 88%
    01:00 +18°C° 0 mm 1 mps 608 mmHg 88%
    02:00 +18°C° 0.2 mm 1 mps 608 mmHg 88%
    03:00 +18°C° 0.2 mm 1 mps 608 mmHg 88%
    04:00 +16°C° 0.2 mm 0 mps 608 mmHg 87%
    05:00 +18°C° 0 mm 1 mps 608 mmHg 88%
    06:00 +18°C° 0 mm 1 mps 608 mmHg 88%
    07:00 +18°C° 0 mm 1 mps 609 mmHg 89%
    08:00 +20°C° 0 mm 1 mps 609 mmHg 83%
    09:00 +21°C° 0 mm 1 mps 610 mmHg 77%
    10:00 +23°C° 0 mm 1 mps 611 mmHg 71%
    11:00 +24°C° 0.5 mm 1 mps 610 mmHg 68%
    12:00 +24°C° 0.5 mm 1 mps 610 mmHg 66%
    13:00 +25°C° 0.5 mm 1 mps 610 mmHg 63%
    14:00 +25°C° 0.9 mm 1 mps 609 mmHg 64%
    15:00 +24°C° 0.9 mm 1 mps 608 mmHg 65%
    16:00 +24°C° 0.9 mm 1 mps 608 mmHg 66%
    17:00 +22°C° 0.8 mm 1 mps 607 mmHg 70%
    18:00 +21°C° 0.8 mm 1 mps 607 mmHg 74%
    19:00 +19°C° 0.8 mm 2 mps 607 mmHg 79%
    20:00 +19°C° 0 mm 1 mps 607 mmHg 79%
    21:00 +19°C° 0 mm 1 mps 607 mmHg 79%
    22:00 +18°C° 0 mm 1 mps 608 mmHg 79%
    23:00 +18°C° 0 mm 1 mps 607 mmHg 79%

    23 January, Thursday

    Time Temperature Precipitation Wind Pressure Humidity
    00:00 +18°C° 0 mm 1 mps 607 mmHg 80%
    01:00 +18°C° 0 mm 1 mps 607 mmHg 80%
    02:00 +16°C° 0 mm 1 mps 607 mmHg 80%
    03:00 +16°C° 0 mm 1 mps 606 mmHg 80%
    04:00 +16°C° 0 mm 1 mps 606 mmHg 80%
    05:00 +16°C° 0 mm 1 mps 606 mmHg 79%
    06:00 +18°C° 0 mm 1 mps 607 mmHg 78%
    07:00 +16°C° 0 mm 0 mps 607 mmHg 77%
    08:00 +20°C° 0 mm 1 mps 608 mmHg 70%
    09:00 +22°C° 0 mm 1 mps 609 mmHg 62%
    10:00 +24°C° 0 mm 1 mps 610 mmHg 55%
    11:00 +25°C° 0 mm 2 mps 609 mmHg 53%
    12:00 +25°C° 0 mm 2 mps 609 mmHg 52%
    13:00 +26°C° 0 mm 2 mps 609 mmHg 50%
    14:00 +25°C° 0.1 mm 3 mps 608 mmHg 52%
    15:00 +25°C° 0.1 mm 3 mps 608 mmHg 54%
    16:00 +24°C° 0.1 mm 3 mps 607 mmHg 56%
    17:00 +21°C° 0 mm 3 mps 607 mmHg 65%
    18:00 +19°C° 0 mm 2 mps 607 mmHg 73%
    19:00 +18°C° 0 mm 1 mps 606 mmHg 81%
    20:00 +18°C° 0 mm 1 mps 607 mmHg 83%
    21:00 +16°C° 0 mm 1 mps 607 mmHg 84%
    22:00 +15°C° 0 mm 1 mps 607 mmHg 86%
    23:00 +15°C° 0 mm 1 mps 607 mmHg 87%

    24 January, Friday

    Time Temperature Precipitation Wind Pressure Humidity
    00:00 +15°C° 0 mm 1 mps 607 mmHg 87%
    01:00 +14°C° 0 mm 1 mps 607 mmHg 88%
    02:00 +14°C° 0 mm 1 mps 606 mmHg 86%
    03:00 +14°C° 0 mm 1 mps 606 mmHg 84%
    04:00 +14°C° 0 mm 1 mps 606 mmHg 82%
    05:00 +14°C° 0 mm 1 mps 606 mmHg 77%
    06:00 +15°C° 0 mm 1 mps 607 mmHg 73%
    07:00 +16°C° 0 mm 1 mps 607 mmHg 68%
    08:00 +19°C° 0 mm 1 mps 608 mmHg 61%
    09:00 +20°C° 0 mm 2 mps 609 mmHg 53%
    10:00 +23°C° 0 mm 2 mps 610 mmHg 46%
    11:00 +24°C° 0 mm 2 mps 610 mmHg 45%
    12:00 +24°C° 0 mm 3 mps 610 mmHg 45%
    13:00 +25°C° 0 mm 3 mps 610 mmHg 44%
    14:00 +25°C° 0 mm 3 mps 609 mmHg 45%
    15:00 +24°C° 0 mm 3 mps 608 mmHg 47%
    16:00 +24°C° 0 mm 3 mps 608 mmHg 48%
    17:00 +21°C° 0 mm 2 mps 607 mmHg 58%
    18:00 +19°C° 0 mm 2 mps 607 mmHg 67%
    19:00 +18°C° 0 mm 1 mps 607 mmHg 76%
    20:00 +16°C° 0 mm 1 mps 607 mmHg 79%
    21:00 +16°C° 0 mm 1 mps 607 mmHg 82%
    22:00 +15°C° 0 mm 1 mps 607 mmHg 85%
    23:00 +15°C° 0 mm 1 mps 607 mmHg 85%
    Show more